Home > Weather > Weiz > Past weeks

Flag for Austria Past Weather in Weiz, Styria, Austria — Yesterday and Last 2 Weeks

Now
63 °F

Passing clouds.


Feels Like: 63 °F
Forecast: 55 / 76 °F
Wind: N/A

Location: Graz-Thalerhof-Flughafen

Current Time: Aug 26, 2016 at 12:21:56 AM

Latest Report: Aug 25, 2016 at 11:00 PM


Visibility: 18 mi

Pressure: 30.20 "Hg

Humidity: 89%

Dew Point: 59 °F

Location of WeizLocation

Past Weather in Weiz — Graph

°F

Weiz Temperature Yesterday

Maximum temperature yesterday: 77 °F (at 5:00 PM)
Minimum temperature yesterday: 55 °F (at 7:00 AM)
Average temperature yesterday: 67 °F

High & Low Weather Summary for the Past Weeks

 TemperatureHumidityPressure
High80 °F (Aug 14, 4:00 PM)100% (Aug 11, 1:00 AM)30.35 "Hg (Aug 11, 1:00 AM)
Low43 °F (Aug 12, 6:00 AM)37% (Aug 23, 2:00 PM)29.82 "Hg (Aug 18, 5:00 PM)
Average65 °F78%30.11 "Hg
* Reported Aug 10 11:00 PM — Aug 25 11:00 PM, Weiz, Weather by CustomWeather, © 2016

Note: Actual official high and low records may vary slightly from our data, if they occured in-between our weather recording intervals... More about our weather records

Advertising

Weiz Weather History for the Previous 24 Hours

Scroll right to see more
 ConditionsComfort  
Time TempWeatherWind HumidityBarometerVisibility
11:00 PM
Thu, Aug 25
63 °FPassing clouds.N/A89%30.20 "Hg18 mi
10:00 PM64 °FPassing clouds.N/A83%30.19 "Hg19 mi
9:00 PM66 °FClear.N/A76%30.17 "Hg19 mi
8:00 PM71 °FClear.N/A61%30.15 "Hg28 mi
7:00 PM74 °FPassing clouds.N/A57%30.13 "Hg16 mi
6:00 PM77 °FPassing clouds.N/A47%30.13 "Hg28 mi
5:00 PM77 °FPassing clouds.N/A46%30.14 "Hg22 mi
4:00 PM77 °FPassing clouds.N/A45%30.15 "Hg19 mi
3:00 PM76 °FPassing clouds.N/A48%30.16 "Hg19 mi
2:00 PM76 °FPassing clouds.N/A52%30.17 "Hg5 mi
1:00 PM75 °FPassing clouds.N/A54%30.18 "Hg2 mi
12:00 PM73 °FPassing clouds.N/A57%30.19 "Hg18 mi
11:00 AM72 °FPassing clouds.N/A60%30.21 "Hg19 mi
10:00 AM68 °FPassing clouds.N/A68%30.22 "Hg13 mi
9:00 AM62 °FPassing clouds.N/A83%30.23 "Hg11 mi
8:00 AM60 °FPassing clouds.N/A90%30.23 "Hg10 mi
7:00 AM55 °FPassing clouds.N/A95%30.24 "Hg6 mi
6:00 AM55 °FPassing clouds.N/A98%30.24 "Hg4 mi
5:00 AM56 °FLight rain. Passing clouds.N/A95%30.23 "Hg1 mi
4:00 AM57 °FCool.N/A96%30.24 "Hg2 mi
3:00 AM57 °FCool.N/A94%30.24 "Hg7 mi
2:00 AM60 °FCool.N/A92%30.24 "Hg6 mi
1:00 AM61 °FPassing clouds.N/A90%30.25 "Hg13 mi
12:00 AM62 °FPassing clouds.N/A87%30.25 "Hg14 mi
Weather by CustomWeather, © 2016

See weather overviewHow to use our weather pages